Location: Albany
(35.0170°S, 117.8920°E)
Time: 16:58:47
(UTC+08:00)

Explorer 11/Cluster Stage 4 - Pass Details

Date: 26 January 2021
Orbit: 467 x 1257 km, 28.8° (Epoch: 02 March)

Event Time Altitude Azimuth Distance (km) Brightness Sun altitude
Rises 10:10:32 0° 280° (W) 3,412 9.6 56.9°
Reaches altitude 10° 10:13:28 10° 287° (WNW) 2,331 8.9 57.4°
Maximum altitude 10:18:31 40° 355° (N) 982 7.8 58.4°
Drops below altitude 10° 10:22:38 10° 65° (ENE) 1,898 9.2 59.2°
Sets 10:24:48 0° 72° (ENE) 2,706 9.8 59.6°
